[[{"header":{"parameterUnit":"m.s-1","parameterCategory":1,"la1":30.2991,"la2":30.254,"lo1":-89.0895,"lo2":-89.0444,"dy":0.0017,"dx":0.0017,"nx":28,"ny":28,"refTime":"2024-10-11T03:00:00:Z","depth":0,"parameterNumber":2,"parameterNumberName":"U-component_of_WINDS"},"data":[0,0,0,0,0,0,0,0,0,0,0,0,0,0,0,0,0,0,0,0,0,0,0,0,0,0,0,0,0,0,0,0,0,0,0,0,0,0,0,0,0,0,0,0,0,0,0,0,0,0,0,0,0,0,0,0,0,0,-1.266,-1.2661,0,-1.2752,-1.2753,-1.2754,-1.2735,-1.2734,-1.2732,-1.273,-1.2831,-1.2835,-1.2839,0,0,0,0,0,0,0,0,0,0,0,0,0,-1.2473,-1.2477,-1.266,-1.2661,-1.2662,-1.2752,-1.2753,-1.2754,-1.2736,-1.2734,-1.2732,-1.273,-1.2829,-1.2834,-1.2839,0,0,0,0,0,0,0,0,0,0,0,0,0,-1.2559,-1.2478,-1.2659,-1.2663,-1.2665,-1.2751,-1.2753,-1.2755,-1.2736,-1.2734,-1.2731,-1.2729,-1.2827,-1.2834,-1.284,-1.293,0,0,-1.2859,-1.2862,0,0,0,0,0,0,0,0,-1.2554,-1.2566,-1.2662,-1.2663,-1.2665,-1.2729,-1.2724,-1.2814,-1.2737,-1.2709,-1.273,-1.2727,-1.2799,-1.2808,-1.2831,-1.2935,-1.2939,-1.286,-1.2864,-1.2867,-1.2868,0,0,0,0,0,0,0,-1.2548,-1.2562,-1.2696,-1.2663,-1.2665,-1.2663,-1.2672,-1.2741,-1.2768,-1.2711,-1.271,-1.2721,-1.28,-1.2825,-1.2833,-1.2941,-1.286,-1.2865,-1.2869,-1.2872,-1.3126,-1.3128,0,0,0,0,0,0,-1.254,-1.2557,-1.2693,-1.2699,-1.2602,-1.2668,-1.2678,-1.2711,-1.2767,-1.2773,-1.2723,-1.272,-1.2815,-1.2826,-1.2837,-1.2947,-1.2867,-1.2872,-1.2876,-1.3123,-1.3126,-1.3129,0,0,0,0,0,0,-1.2536,-1.2552,-1.269,-1.2628,-1.2645,-1.2674,-1.2711,-1.2715,-1.2739,-1.2776,-1.2781,-1.2744,-1.2814,-1.2828,-1.2907,-1.295,-1.2875,-1.2881,-1.3119,-1.3124,-1.3128,-1.3168,0,0,0,0,0,0,-1.2531,-1.2551,-1.2584,-1.2629,-1.2648,-1.2757,-1.2714,-1.2718,-1.275,-1.2746,-1.2796,-1.2802,-1.2813,-1.2898,-1.2913,-1.2957,-1.2886,-1.3115,-1.3121,-1.3126,-1.3163,-1.3173,-1.3182,0,0,0,0,0,-1.2524,-1.2593,-1.2586,-1.2603,-1.269,-1.2759,-1.2771,-1.278,-1.2753,-1.2788,-1.2811,-1.28,-1.2943,-1.2906,-1.2924,-1.297,-1.3113,-1.312,-1.3126,-1.3158,-1.3171,-1.3181,0,0,0,0,0,0,-1.2554,-1.2599,-1.2592,-1.2676,-1.2714,-1.2756,-1.28,-1.2793,-1.2841,-1.2836,-1.2847,-1.2858,-1.2939,-1.2963,-1.2921,-1.3061,-1.3024,-1.3035,-1.3043,-1.3055,-1.3064,-1.3057,-1.2891,0,0,0,0,0,-1.257,-1.2621,-1.2658,-1.2729,-1.2748,-1.2771,-1.2801,-1.2805,-1.2846,-1.2862,-1.2891,-1.2933,-1.2987,-1.3022,-1.3074,-1.3166,-1.3178,-1.3207,-1.3216,-1.3224,-1.3233,-1.3285,-1.3299,-1.3151,-1.3151,-1.3151,0,0,-1.2605,-1.2635,-1.2667,-1.2736,-1.2765,-1.282,-1.2784,-1.2843,-1.2884,-1.2872,-1.2948,-1.2971,-1.3018,-1.3104,-1.3144,-1.3127,-1.3277,-1.3232,-1.3238,-1.3243,-1.3293,-1.3307,-1.332,-1.3155,-1.3154,-1.3154,0,0,-1.2695,-1.2723,-1.2785,-1.2816,-1.2861,-1.2875,-1.2891,-1.2934,-1.2948,-1.3025,-1.3017,-1.3067,-1.316,-1.3194,-1.3224,-1.3328,-1.332,-1.3345,-1.3395,-1.3445,-1.3457,-1.3467,-1.3506,-1.3519,-1.3354,-1.3354,-1.3354,0,-1.2733,-1.2812,-1.2819,-1.2878,-1.291,-1.2899,-1.2964,-1.2994,-1.3055,-1.3077,-1.3056,-1.3173,-1.3204,-1.3299,-1.3324,-1.3348,-1.3367,-1.3339,-1.3454,-1.3465,-1.3475,-1.3511,-1.3526,-1.3357,-1.3356,-1.3356,-1.3356,0,-1.2857,-1.2912,-1.2957,-1.3014,-1.3051,-1.3113,-1.3131,-1.3167,-1.3169,-1.3186,-1.3266,-1.3302,-1.3362,-1.3385,-1.3387,-1.3481,-1.3468,-1.3451,-1.3414,-1.3491,-1.3526,-1.354,-1.336,-1.3359,-1.3359,-1.3358,0,0,-1.2968,-1.3028,-1.3045,-1.3071,-1.312,-1.3164,-1.3227,-1.3283,-1.3315,-1.3357,-1.3411,-1.349,-1.3474,-1.3508,-1.3514,-1.3559,-1.3641,-1.3536,-1.3537,-1.3555,-1.3748,-1.3761,-1.3777,-1.3636,-1.3638,-1.364,-1.3744,0,-1.3063,-1.3171,-1.3179,-1.3277,-1.3329,-1.3321,-1.3376,-1.3413,-1.3432,-1.3481,-1.3502,-1.3558,-1.3532,-1.3553,-1.3596,-1.3621,-1.368,-1.3614,-1.3688,-1.369,-1.3676,-1.3795,-1.3809,-1.3905,-1.3758,-1.376,-1.3762,0,-1.3188,-1.3233,-1.3336,-1.3378,-1.3401,-1.3449,-1.3503,-1.3549,-1.3592,-1.3603,-1.364,-1.3641,-1.3708,-1.3668,-1.3761,-1.3716,-1.3747,-1.3764,-1.3768,-1.3776,-1.3731,-1.3807,-1.3936,-1.395,-1.3783,-1.3781,-1.378,0,-1.326,-1.3346,-1.3419,-1.3442,-1.3493,-1.3528,-1.3552,-1.3592,-1.3626,-1.3673,-1.3696,-1.3751,-1.3782,-1.3825,-1.3842,-1.3811,-1.3935,-1.3896,-1.3947,-1.3947,-1.3974,-1.3972,-1.411,-1.3993,-1.3993,-1.3992,-1.3992,0,-1.3366,-1.3429,-1.3452,-1.3497,-1.3568,-1.3578,-1.365,-1.3672,-1.3708,-1.3759,-1.3756,-1.3804,-1.3822,-1.3874,-1.3888,-1.3964,-1.3978,-1.399,-1.3993,-1.399,-1.3989,-1.4011,-1.4005,-1.3996,-1.3995,-1.3995,-1.3994,0,-1.3458,-1.3475,-1.3554,-1.3597,-1.3609,-1.366,-1.3697,-1.3742,-1.376,-1.3824,-1.384,-1.3869,-1.393,-1.395,-1.4025,-1.4034,-1.4123,-1.412,-1.4107,-1.4108,-1.4158,-1.4154,-1.4316,-1.4339,-1.4206,-1.4207,-1.4208,0,-1.3524,-1.3572,-1.362,-1.3653,-1.3677,-1.373,-1.3764,-1.3777,-1.3814,-1.3867,-1.3906,-1.3966,-1.4014,-1.4113,-1.4142,-1.4199,-1.4198,-1.4251,-1.4207,-1.4204,-1.42,-1.4197,-1.4203,-1.426,-1.4261,-1.4262,-1.4263,0,-1.364,-1.3647,-1.3695,-1.3747,-1.3788,-1.383,-1.3871,-1.3898,-1.3918,-1.3959,-1.402,-1.4058,-1.4133,-1.4194,-1.4253,-1.428,-1.4276,-1.4277,-1.4292,-1.429,-1.4281,-1.4288,-1.4131,-1.4273,-1.4272,-1.4271,-1.4271,-1.427,-1.3722,-1.3765,-1.3805,-1.386,-1.3892,-1.393,-1.3974,-1.3997,-1.4048,-1.4109,-1.4114,-1.4181,-1.4225,-1.4303,-1.4333,-1.4387,-1.4373,-1.4394,-1.44,-1.4405,-1.4409,-1.4272,-1.4398,-1.4398,-1.4397,-1.4397,-1.4397,0,-1.3839,-1.3864,-1.3914,-1.3971,-1.4014,-1.4005,-1.405,-1.4088,-1.4145,-1.4186,-1.4234,-1.4305,-1.4364,-1.4398,-1.4458,-1.4495,-1.4495,-1.451,-1.4508,-1.4515,-1.4418,-1.44,-1.4509,-1.4509,-1.4509,-1.4509,-1.4509,-1.4509,-1.3905,-1.3977,-1.3988,-1.4078,-1.4103,-1.4167,-1.4194,-1.423,-1.4262,-1.4342,-1.439,-1.4411,-1.445,-1.4512,-1.4567,-1.4576,-1.4598,-1.4615,-1.4623,-1.4533,-1.4521,-1.451,-1.4493,-1.462,-1.462,-1.4715,-1.4716,-1.4716]},{"header":{"parameterUnit":"m.s-1","parameterCategory":1,"la1":30.2991,"la2":30.254,"lo1":-89.0895,"lo2":-89.0444,"dy":0.0017,"dx":0.0017,"nx":28,"ny":28,"refTime":"2024-10-11T03:00:00:Z","depth":0,"parameterNumber":3,"parameterNumberName":"V-component_of_WINDS"},"data":[0,0,0,0,0,0,0,0,0,0,0,0,0,0,0,0,0,0,0,0,0,0,0,0,0,0,0,0,0,0,0,0,0,0,0,0,0,0,0,0,0,0,0,0,0,0,0,0,0,0,0,0,0,0,0,0,0,0,-0.1403,-0.1404,0,-0.1468,-0.1469,-0.1469,-0.1518,-0.1519,-0.1519,-0.152,-0.1588,-0.159,-0.1591,0,0,0,0,0,0,0,0,0,0,0,0,0,-0.1324,-0.1325,-0.1403,-0.1404,-0.1405,-0.1468,-0.1469,-0.147,-0.1518,-0.1519,-0.1519,-0.152,-0.1588,-0.1589,-0.1591,0,0,0,0,0,0,0,0,0,0,0,0,0,-0.137,-0.1326,-0.1403,-0.1437,-0.144,-0.1468,-0.1469,-0.147,-0.1518,-0.1519,-0.152,-0.152,-0.1587,-0.1589,-0.1591,-0.1591,0,0,-0.1598,-0.1599,0,0,0,0,0,0,0,0,-0.1368,-0.1373,-0.1431,-0.1434,-0.1438,-0.1486,-0.1466,-0.1511,-0.1518,-0.1489,-0.152,-0.152,-0.1554,-0.1559,-0.1569,-0.1594,-0.1597,-0.1598,-0.1599,-0.16,-0.1601,0,0,0,0,0,0,0,-0.1365,-0.1371,-0.1429,-0.1432,-0.1436,-0.1449,-0.1457,-0.1475,-0.1517,-0.1491,-0.1495,-0.1502,-0.1556,-0.1567,-0.1571,-0.1598,-0.1598,-0.16,-0.1601,-0.1602,-0.1627,-0.1627,0,0,0,0,0,0,-0.1356,-0.1368,-0.1427,-0.1431,-0.1404,-0.145,-0.1458,-0.147,-0.1517,-0.1524,-0.1501,-0.1504,-0.1563,-0.1569,-0.1574,-0.1577,-0.16,-0.1602,-0.1603,-0.1628,-0.1627,-0.1627,0,0,0,0,0,0,-0.1354,-0.1361,-0.1424,-0.14,-0.1409,-0.1451,-0.1463,-0.1471,-0.1482,-0.1524,-0.1532,-0.1505,-0.1564,-0.1571,-0.1587,-0.158,-0.1603,-0.1605,-0.1629,-0.1628,-0.1627,-0.1584,0,0,0,0,0,0,-0.1351,-0.136,-0.1359,-0.14,-0.141,-0.1435,-0.1463,-0.1472,-0.1485,-0.149,-0.153,-0.1537,-0.1565,-0.1583,-0.1589,-0.1584,-0.1607,-0.1629,-0.1628,-0.1627,-0.1586,-0.1582,-0.1578,0,0,0,0,0,-0.1348,-0.1345,-0.1359,-0.1366,-0.1411,-0.1434,-0.1441,-0.1472,-0.1485,-0.1485,-0.1512,-0.1536,-0.158,-0.1584,-0.1591,-0.1587,-0.163,-0.1629,-0.1627,-0.1588,-0.1582,-0.1578,0,0,0,0,0,0,-0.1303,-0.1351,-0.1367,-0.1377,-0.1401,-0.1443,-0.1444,-0.1465,-0.1487,-0.149,-0.1529,-0.1538,-0.155,-0.157,-0.1574,-0.1589,-0.1608,-0.1608,-0.1576,-0.1571,-0.1567,-0.1562,-0.1608,0,0,0,0,0,-0.1294,-0.1308,-0.135,-0.1354,-0.1365,-0.1402,-0.1414,-0.1436,-0.1463,-0.1474,-0.1502,-0.1529,-0.1549,-0.1561,-0.1582,-0.1589,-0.1599,-0.1589,-0.1585,-0.1582,-0.1581,-0.1588,-0.1584,-0.1622,-0.1622,-0.1622,0,0,-0.1276,-0.1304,-0.1311,-0.1346,-0.1367,-0.1382,-0.1411,-0.1425,-0.1437,-0.1477,-0.1493,-0.1515,-0.1546,-0.1558,-0.1565,-0.1575,-0.1573,-0.158,-0.1577,-0.1579,-0.1586,-0.1582,-0.1579,-0.1621,-0.1621,-0.1622,0,0,-0.1251,-0.1273,-0.1279,-0.13,-0.1332,-0.1357,-0.1358,-0.1397,-0.1412,-0.1429,-0.1459,-0.1474,-0.1507,-0.1529,-0.1544,-0.1527,-0.155,-0.1533,-0.1512,-0.1517,-0.1514,-0.1512,-0.1506,-0.1503,-0.1532,-0.1532,-0.1532,0,-0.1224,-0.1247,-0.128,-0.1292,-0.1307,-0.1343,-0.135,-0.1369,-0.1407,-0.1416,-0.1427,-0.147,-0.1494,-0.1512,-0.1507,-0.1518,-0.1522,-0.1529,-0.1512,-0.151,-0.1508,-0.1503,-0.1501,-0.153,-0.153,-0.153,-0.1531,0,-0.1213,-0.1228,-0.123,-0.1264,-0.1279,-0.1289,-0.1324,-0.1335,-0.1356,-0.138,-0.1397,-0.1427,-0.1455,-0.1461,-0.1481,-0.1481,-0.1487,-0.1504,-0.1524,-0.1501,-0.1497,-0.1496,-0.1527,-0.1527,-0.1528,-0.1529,0,0,-0.1161,-0.1213,-0.1213,-0.123,-0.1268,-0.1281,-0.1292,-0.1318,-0.1328,-0.1352,-0.1364,-0.1391,-0.1408,-0.1425,-0.1449,-0.1453,-0.1438,-0.147,-0.1472,-0.1464,-0.1441,-0.1428,-0.1425,-0.1453,-0.1453,-0.1453,-0.1438,0,-0.1142,-0.1164,-0.1194,-0.1206,-0.1221,-0.1256,-0.1266,-0.1291,-0.1314,-0.133,-0.1356,-0.1375,-0.1394,-0.1405,-0.1411,-0.1439,-0.1434,-0.144,-0.1465,-0.1466,-0.1456,-0.1423,-0.1409,-0.1394,-0.1437,-0.1437,-0.1437,0,-0.1122,-0.1144,-0.1158,-0.1195,-0.1202,-0.1211,-0.1238,-0.1253,-0.1282,-0.1298,-0.1317,-0.1343,-0.1358,-0.1375,-0.1397,-0.14,-0.1412,-0.1427,-0.1428,-0.1432,-0.145,-0.1426,-0.139,-0.1387,-0.1434,-0.1435,-0.1435,0,-0.1083,-0.1117,-0.1129,-0.1142,-0.1185,-0.1191,-0.1209,-0.1239,-0.1253,-0.1277,-0.1286,-0.1312,-0.1326,-0.1345,-0.1377,-0.1386,-0.1395,-0.1415,-0.141,-0.1409,-0.1411,-0.141,-0.1376,-0.1418,-0.1418,-0.1418,-0.1418,0,-0.1059,-0.1066,-0.1112,-0.112,-0.1129,-0.1164,-0.1173,-0.1195,-0.1221,-0.1234,-0.1266,-0.1278,-0.1319,-0.1336,-0.1361,-0.1376,-0.1382,-0.1396,-0.1403,-0.1393,-0.1392,-0.1402,-0.1404,-0.1417,-0.1417,-0.1417,-0.1417,0,-0.1017,-0.1049,-0.1065,-0.1104,-0.1114,-0.112,-0.1154,-0.1163,-0.1188,-0.1204,-0.121,-0.1249,-0.127,-0.1304,-0.1336,-0.1353,-0.1364,-0.1374,-0.1353,-0.1357,-0.1351,-0.1351,-0.1322,-0.132,-0.1362,-0.1362,-0.1361,0,-0.1,-0.1006,-0.1046,-0.1057,-0.1074,-0.1091,-0.1106,-0.114,-0.1154,-0.1188,-0.1194,-0.1218,-0.1239,-0.1272,-0.1303,-0.1328,-0.134,-0.1328,-0.1344,-0.1335,-0.1341,-0.134,-0.1341,-0.1325,-0.1324,-0.1324,-0.1323,0,-0.0966,-0.0981,-0.1,-0.1024,-0.104,-0.1061,-0.1084,-0.1091,-0.1131,-0.1145,-0.1168,-0.1184,-0.1216,-0.124,-0.1269,-0.129,-0.1313,-0.1318,-0.1318,-0.1309,-0.1297,-0.1304,-0.1344,-0.1319,-0.1319,-0.1319,-0.132,-0.132,-0.0936,-0.0944,-0.0973,-0.0993,-0.1014,-0.1034,-0.1045,-0.1071,-0.1089,-0.1118,-0.1138,-0.1159,-0.1189,-0.123,-0.1249,-0.1267,-0.1277,-0.1277,-0.1278,-0.1277,-0.1274,-0.1293,-0.1273,-0.1273,-0.1273,-0.1273,-0.1273,0,-0.0904,-0.0925,-0.0943,-0.0974,-0.099,-0.101,-0.1036,-0.1048,-0.1066,-0.1092,-0.1112,-0.1138,-0.1161,-0.1194,-0.122,-0.1228,-0.124,-0.1234,-0.1234,-0.1238,-0.1263,-0.1261,-0.1224,-0.1224,-0.1224,-0.1224,-0.1224,-0.1224,-0.089,-0.0903,-0.0922,-0.0946,-0.0967,-0.0987,-0.1001,-0.102,-0.1041,-0.1068,-0.1087,-0.1108,-0.1137,-0.1166,-0.1188,-0.1197,-0.1206,-0.1197,-0.1209,-0.1232,-0.1237,-0.1241,-0.1239,-0.1198,-0.1198,-0.1183,-0.1183,-0.1183]}]]